Forrest Park, Northwest Territories

11:56 PM MDT on July 20, 2017 (GMT -0600)
Forrest Park

Weather History for 71936 - August, 2013

Change the Weather History Date:

Sunday, August 4, 2013

  Actual Average Record
Temperature  
Mean Temperature 65 °F -  
Max Temperature 78 °F 63 °F - ()
Min Temperature 52 °F 48 °F - ()
Growing Degree Days 15 (Base 50)    
Moisture  
Dew Point 47 °F    
Average Humidity 51    
Maximum Humidity 88    
Minimum Humidity 23    
Precipitation  
Precipitation 0.00 in 0.05 in - ()
Sea Level Pressure  
Sea Level Pressure 30.03 in    
Wind  
Wind Speed 4 mph ()    
Max Wind Speed 12 mph    
Max Gust Speed 18 mph    
Visibility 15.0 miles    
Events      
T = Trace of Precipitation, MM = Missing Value Source: Averaged Metar Reports

Daily Weather History Graph

Daily Weather History Graph

Search for Another Location

Airport or City:

Trip Planner

Search our weather history database for the weather conditions in past years. The results will help you decide how hot, cold, wet, or windy it might be!

Date:

Astronomy

Aug. 04, 2013 Rise Set
Actual Time 5:09 AM MDT 10:16 PM MDT
Civil Twilight 4:00 AM MDT 11:24 PM MDT
Nautical Twilight 2:16 AM MDT 1:11 AM MDT
Astronomical Twilight Sun does not set Sun does not set
Moon 3:07 AM MDT (8/4) 8:38 PM MDT (8/4)
Length of Visible Light 19h 23m
Length of Day
17h 06m
Waning Crescent, 4% of the Moon is Illuminated
Aug 4
Waning Crescent
Aug 6
New
Aug 14
First Quarter
Aug 20
Full
Aug 28
Last Quarter

Hourly Weather History & Observations

Time (MDT) Temp. Dew Point Humidity Pressure Visibility Wind Dir Wind Speed Gust Speed Precip Events Conditions
12:00 AM 58 °F 47 °F 58% 30.06 in 15 mi SW 3.5 mph - -   Scattered Clouds
12:00 AM 59.0 °F 48.2 °F 67% 30.06 in 15.0 mi SW 2.3 mph - N/A   Partly Cloudy
1:00 AM 57.2 °F 46.4 °F 67% 30.06 in 15.0 mi South 2.3 mph - N/A   Partly Cloudy
2:00 AM 57.2 °F 44.6 °F 63% 30.06 in 15.0 mi East 2.3 mph - N/A   Partly Cloudy
3:00 AM 55.4 °F 51.8 °F 88% 30.06 in 15.0 mi NNE 2.3 mph - N/A   Partly Cloudy
4:00 AM 55.4 °F 50.0 °F 82% 30.06 in 15.0 mi NE 3.5 mph - N/A   Partly Cloudy
5:00 AM 53.6 °F 48.2 °F 82% 30.06 in 15.0 mi ESE 3.5 mph - N/A   Partly Cloudy
6:00 AM 55 °F 50 °F 78% 30.06 in 15 mi East 3.5 mph - -   Clear
6:00 AM 55.4 °F 50.0 °F 82% 30.06 in 15.0 mi East 4.6 mph - N/A   Partly Cloudy
7:00 AM 60.8 °F 50.0 °F 68% 30.06 in 15.0 mi ENE 2.3 mph - N/A   Partly Cloudy
8:00 AM 66.2 °F 48.2 °F 52% 30.06 in 15.0 mi NNE 3.5 mph - N/A   Partly Cloudy
9:00 AM 68.0 °F 50.0 °F 52% 30.06 in 15.0 mi NE 4.6 mph - N/A   Partly Cloudy
10:00 AM 69.8 °F 50.0 °F 49% 30.06 in 15.0 mi ENE 4.6 mph - N/A   Partly Cloudy
11:00 AM 73.4 °F 46.4 °F 38% 30.05 in 15.0 mi NE 6.9 mph - N/A   Scattered Clouds
12:00 PM 76 °F 49 °F 27% 30.04 in 15 mi SE 5.8 mph - -   Clear
12:00 PM 77.0 °F 48.2 °F 36% 30.04 in 15.0 mi SE 3.5 mph - N/A   Scattered Clouds
1:00 PM 77.0 °F 44.6 °F 32% 30.04 in 15.0 mi ESE 10.4 mph - N/A   Scattered Clouds
2:00 PM 78.8 °F 48.2 °F 34% 30.02 in 15.0 mi South 9.2 mph - N/A   Scattered Clouds
3:00 PM 77.0 °F 48.2 °F 36% 30.02 in 15.0 mi South 9.2 mph 18.4 mph N/A   Mostly Cloudy
4:00 PM 77.0 °F 44.6 °F 32% 30.01 in 15.0 mi South 11.5 mph - N/A   Mostly Cloudy
5:00 PM 77.0 °F 44.6 °F 32% 30.00 in 15.0 mi SSW 10.4 mph - N/A   Mostly Cloudy
6:00 PM 76 °F 45 °F 23% 30.00 in 15 mi SSW 10.4 mph - -   Clear
6:00 PM 75.2 °F 44.6 °F 34% 30.00 in 15.0 mi SSW 9.2 mph - N/A   Mostly Cloudy
7:00 PM 75.2 °F 44.6 °F 34% 29.99 in 15.0 mi WSW 8.1 mph - N/A   Mostly Cloudy
8:00 PM 75.2 °F 44.6 °F 34% 29.98 in 15.0 mi SW 5.8 mph - N/A   Mostly Cloudy
9:00 PM 71.6 °F 46.4 °F 41% 29.98 in 15.0 mi South 2.3 mph - N/A   Mostly Cloudy
10:00 PM 68.0 °F 48.2 °F 49% 29.97 in 15.0 mi ESE 3.5 mph - N/A   Partly Cloudy
11:00 PM 62.6 °F 48.2 °F 59% 29.98 in 15.0 mi SE 4.6 mph - N/A   Partly Cloudy